Weather in Repnoye

Russia / Saratov Oblast     51°35′15″N   43°10′37″E
temp.,
°C
wind,
m/s
gust,
m/s
humid.,
%
clouds,
%
prec.,
mm/h
press.,
hPa
HPBL,
m
28 september, tue
tue2801:00+9n378898 0.0 1017392
04:00+8nne4787100 0.1 1018448
07:00+7nne478472 0.0 1020522
10:00+7nne4684100 0.1 1021622
13:00+7ene5674100 0.2 1023769
16:00+7ne4680100 0.3 10241009
19:00+7ne5876100 0.0 1026683
22:00+6ne376942 0.0 1028406
29 september, wed
wed2901:00+3n36806 0.0 1029132
04:00+2nne36845 0.0 1029109
07:00+2nne378537 0.0 1030161
10:00+6ne58635 0.0 1031720
13:00+10ne56455 0.0 10311422
16:00+11nne56425 0.0 10301656
19:00+7nne36565 0.0 103193
22:00+5nne36665 0.0 1032106
30 september, thu
thu3001:00+4nne34705 0.0 103268
04:00+3nne33735 0.0 103238
07:00+2nne33775 0.0 103334
10:00+7nne34575 0.0 1034380
13:00+11nne33445 0.0 10331376
16:00+12n334239 0.0 10331619
19:00+8nne33585 0.0 103329
22:00+6ne22655 0.0 103421
1 october, fri
fri101:00+5ne22686 0.0 103511
04:00+5n116796 0.0 103510
07:00+7nw226399 0.0 103533
10:00+10nnw235597 0.0 1035406
13:00+11nnw234965 0.0 1035819
16:00+12nnw4450100 0.0 10341023
19:00+9nw226693 0.0 103430
22:00+10wnw236676 0.0 103583
2 october, sat
sat201:00+8nw227611 0.0 103528
04:00+8nw2480100 0.0 103498
07:00+8nw2483100 0.0 1035114
10:00+10nw2481100 0.0 1035188
13:00+12nnw2272100 0.0 1035470
16:00+14nw226021 0.0 1034842
19:00+11wnw227438 0.0 103413
22:00+11nw227795 0.0 103428